Wind_Speed
78 79 79 82 81 76 72 66 66 70 65 63 66 59 61 59 57 54 54 51 51 53 54 55 57 58 59 56 53 54 55 54 54 54 55 57 59 61 62 61 63 64 65 66
70 75 80 80 80 80 79 77 72 71 71 66 65 67 67 63 59 59 61 63 61 56 57 59 61 61 60 60 61 60 62 65 67 69 69 71 71 71 72 71 69 67 65 65
75 73 74 75 80 80 81 83 81 77 76 72 68 65 64 62 66 66 67 66 66 62 62 64 67 70 69 69 69 71 74 75 74 75 76 79 77 79 80 73 71 74 72 77
76 73 72 72 72 74 75 78 79 77 79 78 79 71 71 72 73 73 73 76 75 73 72 74 72 71 73 73 73 75 76 78 79 82 80 77 77 78 78 75 78 78 80 82
76 76 74 73 74 75 74 75 77 76 72 71 72 72 68 72 73 74 76 77 76 76 75 78 76 74 72 74 76 78 79 77 79 78 79 79 79 79 79 83 85 82 82 83
80 77 76 73 73 71 71 72 73 73 74 74 68 69 66 74 77 77 76 78 78 78 75 72 72 73 74 74 76 78 78 77 77 77 78 81 83 84 83 86 87 85 83 84
87 84 81 78 76 72 71 72 72 71 70 67 69 69 69 69 74 75 74 74 74 74 73 73 74 76 77 78 77 78 79 80 80 80 82 86 87 87 87 89 90 88 89 94
92 88 86 85 82 79 76 75 75 73 70 69 70 67 67 71 73 76 77 76 75 75 75 76 78 78 79 79 79 80 81 82 84 85 85 86 87 87 88 90 93 94 93 92
96 95 93 91 89 87 83 79 79 76 75 73 72 70 71 72 74 77 80 79 78 79 80 80 81 82 82 82 82 83 84 86 87 88 89 90 90 91 92 93 94 95 94 95
99 98 98 97 95 91 89 88 86 85 84 81 79 77 79 80 81 82 80 80 81 82 83 83 84 84 85 86 87 88 90 91 92 93 94 95 96 96 97 96 96 95 95 98
104 101 99 99 97 97 97 95 95 94 92 90 87 85 85 85 85 86 87 87 88 89 90 91 92 91 91 92 93 94 95 96 96 97 98 98 98 98 98 99 100 100 99 102
107 107 105 101 99 98 98 96 95 96 96 94 90 87 88 88 89 91 91 92 91 90 91 93 94 95 97 98 99 99 100 101 102 104 104 104 103 102 102 102 101 103 105 106
105 104 104 103 101 99 97 98 98 97 96 93 93 88 90 91 91 91 91 90 90 91 92 93 94 96 98 100 102 104 106 107 108 108 107 107 106 107 107 107 107 106 105 104
107 106 105 103 102 101 101 101 101 100 96 97 93 94 92 91 93 94 95 93 95 97 97 99 101 102 104 106 108 109 112 112 112 113 112 111 111 112 111 110 109 110 110 110
108 107 105 105 106 106 106 105 104 102 102 100 100 99 101 101 100 99 100 101 103 102 103 106 108 109 109 110 112 113 114 114 113 115 115 115 115 114 112 111 110 108 108 106
110 110 110 109 109 109 108 106 105 104 105 106 106 102 106 108 104 103 107 108 107 110 112 110 109 110 112 113 114 114 114 113 110 108 109 110 111 112 109 106 104 103 103 102
115 111 112 110 110 110 107 105 108 110 109 109 106 108 110 109 109 109 110 109 111 110 111 113 114 115 115 116 115 114 111 107 105 105 104 104 104 105 105 104 103 103 103 105
116 115 114 111 111 109 106 107 109 109 108 110 109 110 114 112 110 110 113 114 113 115 117 118 119 118 117 113 111 108 105 103 103 103 102 101 99 99 99 100 102 103 104 103
119 118 116 115 114 113 110 109 113 113 110 111 113 115 115 115 115 116 119 117 118 117 117 117 116 116 116 114 113 111 108 107 106 105 103 99 96 95 96 96 96 97 98 100
119 122 122 118 119 119 118 119 119 119 112 122 119 118 119 118 116 119 118 117 117 116 115 114 114 114 114 115 115 114 114 113 113 111 106 100 97 96 97 97 96 96 97 100
115 119 118 120 121 120 121 121 122 122 125 124 121 120 121 120 118 117 118 117 115 116 117 117 119 118 120 120 120 120 120 120 116 116 109 103 100 100 99 99 101 100 101 101
107 111 114 118 120 118 117 120 122 123 123 123 122 121 121 121 119 118 117 115 116 116 118 120 121 122 125 126 124 125 124 122 120 116 110 106 104 102 103 104 105 106 108 109
89 93 99 103 105 109 111 114 118 118 116 115 113 113 114 114 114 111 112 114 114 117 120 124 126 127 128 130 128 127 126 122 118 115 113 112 111 110 109 107 107 109 110 111
82 84 86 88 87 91 95 96 97 98 98 97 99 101 99 102 101 101 106 111 115 120 124 128 131 132 134 134 131 128 125 123 122 121 118 117 117 116 114 112 112 112 113 113
77 79 77 79 80 83 84 83 79 77 74 78 80 83 84 87 90 96 104 110 115 122 127 132 136 136 135 133 129 121 124 124 126 125 122 116 110 104 102 99 98 100 101 100
70 73 75 73 76 74 73 73 67 67 71 73 74 78 84 89 96 105 107 112 117 124 129 132 132 131 130 128 128 126 121 116 111 104 99 95 92 88 86 90 90 91 93 94
Wind_Direction
231 234 234 233 234 235 236 236 238 240 243 245 241 246 251 261 259 259 259 260 263 264 265 266 267 267 268 270 272 274 276 277 278 280 282 284 288 290 292 290 288 290 291 291
231 232 235 236 237 237 237 238 239 239 241 243 247 247 249 254 253 254 256 259 259 261 264 267 271 268 269 270 272 275 278 280 282 284 285 286 286 287 289 290 291 291 291 290
233 232 236 238 239 239 241 239 241 243 243 246 248 251 253 256 254 254 260 264 261 262 266 270 273 271 270 272 273 276 277 278 280 282 283 285 288 292 293 290 292 290 287 288
231 233 236 238 239 241 242 241 244 245 246 248 251 253 256 259 258 258 260 264 264 264 270 274 275 272 271 272 275 278 278 280 280 283 286 291 292 290 290 288 290 290 292 290
229 232 234 236 239 241 243 244 244 244 246 248 251 250 252 256 257 258 260 262 264 267 269 274 275 273 271 274 275 276 278 278 280 282 285 286 287 288 286 286 290 290 289 289
229 230 233 236 240 242 244 246 245 245 245 244 246 249 249 255 258 257 259 262 264 267 270 269 271 272 273 274 275 277 278 279 280 281 282 279 282 285 284 285 291 292 291 289
230 233 235 237 239 242 244 245 247 249 251 249 250 251 248 250 257 259 260 262 263 265 267 270 272 274 274 275 277 278 278 279 280 281 281 281 283 285 285 287 288 288 288 289
232 235 237 238 239 240 242 246 248 250 250 251 255 256 256 258 257 260 262 263 263 263 265 267 269 271 273 275 277 278 279 279 279 280 281 281 283 284 285 286 287 287 288 289
234 234 236 238 240 242 244 246 247 249 250 250 251 250 251 254 256 260 263 265 266 266 268 268 270 272 274 276 278 279 279 279 279 281 282 284 285 286 286 287 287 288 289 290
234 236 237 239 242 243 245 246 247 248 248 250 252 254 255 256 257 257 259 262 265 268 269 270 271 273 275 277 278 277 278 279 280 281 282 282 283 284 285 287 288 289 288 289
235 237 238 240 242 243 244 245 248 250 252 253 253 254 256 257 258 260 262 263 265 267 269 271 272 274 275 275 276 277 278 279 279 281 282 283 284 285 286 286 287 289 288 288
235 237 237 239 242 244 246 248 250 252 252 254 255 256 257 258 259 260 263 264 266 269 271 271 272 273 274 275 276 277 278 279 280 281 281 281 282 282 283 284 285 285 286 289
236 238 240 241 243 245 247 249 249 250 251 254 255 257 257 258 260 262 264 266 269 270 270 271 273 273 274 275 276 278 278 278 278 280 281 281 282 283 283 284 285 286 288 288
236 238 241 243 244 246 248 250 251 253 254 254 256 258 260 260 262 264 266 267 268 270 272 274 274 275 276 278 279 279 279 279 280 279 279 280 281 282 282 283 284 284 286 288
239 240 242 244 246 247 248 250 252 255 257 259 260 262 263 263 263 265 268 269 270 273 274 273 275 276 277 278 279 281 282 281 281 281 280 279 280 282 282 282 282 282 284 286
241 243 244 245 247 249 250 253 255 257 258 259 260 263 264 264 267 268 268 269 271 272 274 276 277 278 279 280 281 282 282 282 280 281 281 281 280 280 280 280 281 281 282 284
240 242 246 248 249 251 253 256 257 259 261 261 263 263 266 267 268 270 272 273 273 274 275 276 278 279 280 281 282 283 282 281 282 281 281 281 282 282 282 281 281 281 283 284
244 245 247 249 251 254 256 257 260 261 262 264 265 266 267 268 270 272 272 272 274 275 276 278 280 281 281 281 281 280 280 280 280 281 282 283 284 284 283 282 281 281 282 283
242 245 248 251 253 254 256 257 259 261 262 264 265 267 269 270 271 273 273 276 277 279 279 279 280 280 279 279 279 279 279 279 279 279 280 281 282 283 284 284 284 285 286 287
246 247 248 251 253 255 256 258 259 261 263 263 266 269 271 272 274 275 276 276 276 277 277 277 277 279 279 279 280 282 282 282 281 281 281 282 283 285 286 288 290 291 291 291
243 245 249 252 255 257 258 259 261 263 263 266 269 270 270 272 272 272 272 273 273 274 275 276 277 277 277 277 278 279 280 280 282 281 283 285 287 289 289 290 290 290 290 290
246 247 248 251 253 254 256 258 261 263 264 265 266 267 268 268 268 270 271 271 272 274 275 275 275 274 274 276 278 279 281 282 283 285 287 289 288 288 288 288 288 288 288 288
245 248 249 251 253 255 257 259 260 261 262 263 264 265 266 268 268 266 267 268 270 272 272 271 272 272 274 276 278 280 282 285 287 290 290 291 290 288 287 286 285 286 286 286
246 248 250 252 256 256 257 258 260 259 260 262 264 266 264 263 263 264 267 268 268 266 266 268 270 272 274 277 280 283 286 289 290 291 291 290 290 290 289 287 286 285 284 285
251 252 254 253 252 254 253 254 256 257 258 257 259 261 261 262 262 261 261 262 263 265 267 270 272 275 277 282 286 290 291 291 291 290 289 288 286 284 283 283 282 281 281 282
255 256 258 260 259 262 268 268 269 267 264 265 266 264 265 264 260 258 259 261 263 266 268 271 275 279 281 283 287 290 290 289 288 286 285 283 281 278 279 279 278 277 278 279
Height
10661 10671 10681 10682 10691 10705 10711 10718 10724 10728 10736 10742 10749 10753 10750 10759 10762 10762 10764 10767 10769 10770 10771 10767 10768 10769 10768 10769 10769 10769 10770 10768 10767 10767 10766 10764 10763 10761 10758 10755 10751 10748 10745 10742
10649 10659 10659 10669 10681 10690 10698 10705 10710 10715 10723 10731 10738 10743 10741 10748 10751 10750 10752 10754 10756 10760 10759 10758 10756 10759 10760 10760 10760 10759 10758 10756 10756 10755 10755 10753 10750 10747 10744 10742 10739 10734 10730 10727
10637 10643 10649 10661 10669 10677 10685 10692 10696 10705 10712 10721 10727 10732 10731 10735 10738 10739 10740 10743 10745 10747 10748 10748 10747 10746 10747 10748 10749 10748 10746 10744 10743 10742 10741 10739 10737 10734 10731 10728 10724 10720 10715 10711
10624 10635 10642 10650 10657 10664 10670 10676 10684 10692 10700 10709 10713 10723 10719 10721 10721 10725 10728 10728 10731 10735 10734 10734 10735 10734 10733 10735 10735 10733 10732 10731 10730 10729 10728 10726 10723 10719 10716 10712 10709 10705 10701 10697
10613 10620 10628 10636 10640 10649 10658 10664 10672 10679 10685 10694 10697 10706 10709 10704 10704 10710 10712 10714 10716 10718 10721 10720 10720 10721 10721 10721 10720 10718 10718 10717 10717 10715 10713 10711 10707 10703 10700 10697 10693 10690 10686 10681
10603 10608 10615 10622 10627 10637 10645 10650 10655 10662 10670 10681 10681 10688 10701 10688 10688 10693 10697 10699 10702 10703 10705 10706 10705 10705 10706 10705 10704 10703 10703 10702 10701 10699 10697 10693 10689 10686 10683 10680 10677 10673 10669 10664
10587 10594 10602 10608 10616 10626 10630 10632 10640 10648 10656 10668 10669 10675 10682 10679 10672 10675 10679 10683 10686 10688 10690 10690 10689 10689 10689 10687 10687 10687 10687 10687 10684 10681 10677 10674 10670 10667 10665 10662 10659 10655 10651 10647
10573 10581 10588 10595 10602 10609 10615 10622 10629 10637 10645 10650 10655 10663 10664 10663 10662 10659 10660 10663 10668 10672 10673 10673 10672 10671 10671 10672 10672 10671 10670 10668 10665 10662 10658 10654 10651 10649 10647 10644 10641 10636 10631 10628
10553 10561 10570 10577 10585 10593 10604 10610 10611 10620 10629 10635 10641 10646 10646 10646 10645 10645 10646 10650 10653 10654 10655 10655 10655 10654 10654 10655 10654 10652 10650 10647 10645 10641 10638 10635 10632 10630 10627 10624 10621 10617 10612 10606
10536 10545 10554 10561 10570 10581 10588 10593 10597 10604 10610 10618 10626 10631 10630 10631 10631 10632 10633 10634 10634 10635 10636 10636 10635 10634 10635 10635 10633 10630 10627 10626 10623 10620 10617 10615 10612 10609 10607 10603 10599 10595 10590 10585
10518 10526 10536 10543 10556 10560 10565 10575 10578 10584 10594 10602 10611 10615 10615 10614 10614 10614 10615 10617 10619 10620 10620 10617 10614 10615 10615 10613 10611 10609 10607 10605 10602 10598 10596 10594 10591 10588 10584 10580 10577 10572 10567 10562
10495 10505 10517 10527 10533 10543 10553 10561 10566 10569 10576 10579 10586 10597 10597 10599 10599 10597 10598 10600 10602 10603 10601 10597 10596 10593 10589 10588 10587 10586 10584 10580 10578 10576 10574 10572 10569 10566 10562 10559 10555 10551 10545 10539
10485 10494 10502 10513 10523 10532 10538 10539 10541 10547 10555 10565 10567 10577 10576 10578 10580 10579 10582 10583 10583 10580 10579 10579 10576 10571 10568 10565 10563 10562 10559 10556 10553 10551 10549 10547 10544 10540 10538 10535 10531 10526 10520 10514
10472 10481 10490 10500 10505 10511 10518 10522 10525 10532 10542 10543 10552 10553 10558 10561 10560 10559 10560 10562 10559 10558 10560 10558 10553 10550 10546 10543 10540 10537 10534 10531 10529 10525 10522 10520 10518 10515 10512 10509 10505 10501 10496 10490
10457 10465 10472 10478 10484 10490 10495 10502 10509 10518 10521 10528 10532 10535 10530 10533 10538 10541 10543 10538 10537 10540 10536 10531 10529 10526 10522 10518 10515 10511 10507 10503 10499 10496 10494 10492 10490 10488 10486 10484 10480 10476 10472 10467
10434 10444 10450 10457 10464 10472 10479 10487 10497 10503 10500 10501 10505 10517 10503 10505 10519 10523 10516 10516 10518 10511 10508 10510 10504 10499 10495 10490 10486 10482 10479 10476 10473 10470 10468 10467 10466 10463 10460 10458 10455 10452 10448 10444
10416 10429 10431 10443 10450 10454 10470 10477 10472 10472 10477 10477 10488 10482 10484 10490 10493 10494 10493 10492 10486 10491 10485 10479 10477 10474 10469 10463 10458 10454 10451 10448 10447 10446 10444 10443 10441 10437 10435 10433 10431 10428 10425 10420
10406 10412 10417 10428 10429 10439 10451 10453 10450 10451 10455 10455 10462 10461 10456 10463 10473 10471 10461 10462 10465 10461 10455 10453 10449 10444 10437 10433 10429 10426 10424 10422 10421 10420 10420 10420 10418 10416 10413 10410 10408 10405 10402 10397
10391 10393 10401 10406 10412 10419 10432 10433 10424 10428 10438 10438 10436 10430 10436 10442 10444 10439 10435 10440 10434 10430 10426 10422 10417 10411 10407 10404 10400 10398 10398 10396 10395 10395 10396 10399 10398 10395 10392 10388 10384 10381 10377 10372
10371 10374 10381 10388 10389 10398 10403 10405 10407 10406 10425 10399 10411 10416 10418 10415 10416 10401 10409 10406 10402 10400 10396 10391 10385 10383 10380 10374 10370 10372 10370 10368 10366 10366 10370 10375 10376 10373 10369 10366 10361 10357 10352 10346
10348 10349 10357 10361 10366 10378 10380 10384 10383 10385 10380 10391 10397 10391 10387 10388 10389 10381 10375 10377 10375 10370 10367 10362 10358 10356 10348 10343 10344 10343 10340 10335 10341 10337 10344 10351 10351 10349 10346 10341 10336 10331 10325 10319
10326 10326 10336 10341 10345 10358 10353 10354 10364 10363 10362 10362 10359 10359 10359 10357 10355 10358 10358 10349 10343 10342 10337 10333 10328 10322 10314 10312 10316 10314 10312 10311 10308 10311 10318 10321 10322 10320 10317 10313 10308 10301 10296 10288
10304 10311 10313 10316 10326 10329 10335 10338 10334 10334 10331 10331 10332 10330 10329 10337 10333 10326 10324 10320 10319 10316 10307 10297 10292 10287 10283 10280 10283 10284 10280 10280 10280 10284 10289 10291 10290 10286 10285 10282 10277 10271 10265 10256
10286 10289 10291 10300 10310 10311 10308 10308 10305 10302 10302 10304 10306 10310 10308 10303 10299 10296 10298 10298 10290 10277 10268 10263 10260 10259 10256 10252 10254 10251 10253 10253 10256 10255 10254 10253 10251 10248 10247 10243 10239 10235 10230 10224
10267 10271 10283 10282 10284 10281 10278 10276 10282 10286 10286 10282 10281 10281 10279 10278 10277 10270 10261 10254 10250 10248 10244 10238 10234 10232 10232 10225 10226 10226 10229 10228 10224 10221 10217 10215 10212 10211 10208 10206 10203 10199 10196 10193
10253 10253 10251 10253 10250 10256 10257 10258 10258 10258 10257 10255 10258 10259 10252 10245 10239 10232 10233 10229 10223 10219 10214 10210 10211 10208 10207 10206 10206 10203 10199 10194 10188 10183 10180 10178 10176 10174 10173 10172 10170 10169 10167 10165